Home > Weather > Nicosia > Past weeks

Flag for Cyprus Past Weather in Nicosia, Cyprus — Yesterday and Last 2 Weeks

Now
79 °F

Scattered clouds.


Feels Like: 78 °F
Forecast: 62 / 82 °F
Wind: 7 mph from Northwest

Location: Ercan

Current Time: May 28, 2016 at 7:11:36 PM

Latest Report: May 28, 2016 at 6:20 PM


Visibility: N/A

Pressure: 29.80 "Hg

Humidity: 28%

Dew Point: 43 °F

Location of NicosiaLocation

Past Weather in Nicosia — Graph

°F

Nicosia Temperature Yesterday

Maximum temperature yesterday: 79 °F (at 12:20 PM)
Minimum temperature yesterday: 57 °F (at 3:50 AM)
Average temperature yesterday: 67 °F

High & Low Weather Summary for the Past Weeks

 TemperatureHumidityPressure
High97 °F (May 14, 1:50 PM)94% (May 21, 6:20 AM)30.01 "Hg (May 21, 6:20 AM)
Low55 °F (May 25, 4:20 AM)9% (May 22, 6:20 PM)29.68 "Hg (May 22, 5:50 PM)
Average73 °F51%29.84 "Hg
* Reported May 13 5:20 PM — May 28 5:20 PM, Nicosia, Weather by CustomWeather, © 2016

Note: Actual official high and low records may vary slightly from our data, if they occured in-between our weather recording intervals... More about our weather records

Advertising

Nicosia Weather History for the Previous 24 Hours

Scroll right to see more
 ConditionsComfort  
Time TempWeatherWind HumidityBarometerVisibility
5:20 PM
Sat, May 28
81 °FPartly sunny.8 mph26%29.77 "HgN/A
4:50 PM79 °FPartly sunny.8 mph28%29.77 "HgN/A
4:20 PM79 °FPartly sunny.8 mph30%29.77 "HgN/A
3:50 PM77 °FPartly sunny.10 mph36%29.80 "HgN/A
3:20 PM77 °FPartly sunny.7 mph42%29.80 "HgN/A
2:50 PM75 °FPartly sunny.8 mph44%29.80 "HgN/A
2:20 PM73 °FThunderstorms. Broken clouds.9 mph47%29.80 "HgN/A
1:50 PM73 °FThunderstorms. Broken clouds.9 mph47%29.77 "HgN/A
1:20 PM72 °FThunderstorms. Broken clouds.15 mph53%29.80 "HgN/A
12:50 PM77 °FScattered clouds.16 mph44%29.80 "HgN/A
12:20 PM79 °FScattered clouds.6 mph32%29.77 "HgN/A
11:50 AM79 °FScattered clouds.6 mph32%29.80 "HgN/A
11:20 AM77 °FScattered clouds.6 mph36%29.80 "HgN/A
10:50 AM77 °FPassing clouds.8 mph39%29.80 "HgN/A
10:20 AM73 °FPartly sunny.5 mph44%29.80 "HgN/A
9:50 AM73 °FPartly sunny.6 mph44%29.77 "HgN/A
9:20 AM70 °FMild.8 mph57%29.77 "HgN/A
8:50 AM68 °FPartly sunny.8 mph60%29.77 "HgN/A
8:20 AM68 °FPartly sunny.6 mph60%29.77 "HgN/A
7:50 AM64 °FScattered clouds.6 mph68%29.77 "HgN/A
7:20 AM63 °FPassing clouds.6 mph73%29.77 "HgN/A
6:50 AM61 °FPassing clouds.5 mph77%29.77 "HgN/A
6:20 AM59 °FPassing clouds.6 mph82%29.74 "HgN/A
5:50 AM57 °FPassing clouds.5 mph88%29.74 "HgN/A
5:20 AM59 °FPassing clouds.7 mph82%29.74 "HgN/A
4:50 AM61 °FPassing clouds.9 mph83%29.74 "HgN/A
4:20 AM61 °FPassing clouds.9 mph83%29.74 "HgN/A
3:50 AM61 °FPassing clouds.9 mph88%29.74 "HgN/A
3:20 AM61 °FPassing clouds.9 mph88%29.74 "HgN/A
2:50 AM63 °FPassing clouds.8 mph88%29.74 "HgN/A
2:20 AM61 °FPassing clouds.7 mph88%29.74 "HgN/A
1:50 AM63 °FPassing clouds.8 mph88%29.77 "HgN/A
1:20 AM61 °FPassing clouds.5 mph88%29.77 "HgN/A
12:50 AM63 °FPassing clouds.6 mph88%29.77 "HgN/A
12:20 AM63 °FPassing clouds.7 mph88%29.80 "HgN/A
11:50 PM
Fri, May 27
63 °FPassing clouds.7 mph88%29.80 "HgN/A
11:20 PM64 °FPassing clouds.9 mph83%29.80 "HgN/A
10:50 PM64 °FPassing clouds.7 mph83%29.80 "HgN/A
10:20 PM64 °FPassing clouds.8 mph83%29.80 "HgN/A
9:50 PM66 °FPassing clouds.9 mph78%29.80 "HgN/A
9:20 PM68 °FPassing clouds.10 mph73%29.80 "HgN/A
8:50 PM68 °FPassing clouds.No wind64%29.80 "HgN/A
8:20 PM68 °FScattered clouds.5 mph69%29.77 "HgN/A
7:50 PM72 °FScattered clouds.5 mph61%29.77 "HgN/A
7:20 PM73 °FScattered clouds.No wind50%29.77 "HgN/A
Weather by CustomWeather, © 2016

See weather overviewHow to use our weather pages